Location: Grisols
(45.0093°N, 3.1167°E)
Time: 01:34:45
(UTC+00:00)

Cosmos 2297 - Pass Details

Date: 21 October 2019
Orbit: 834 x 860 km, 71.0° (Epoch: 22 November)

Event Time Altitude Azimuth Distance (km) Brightness Sun altitude
Rises 18:40:58 0° 195° (SSW) 3,392 7.0 -19.7°
Reaches altitude 10° 18:43:24 10° 193° (SSW) 2,465 6.2 -20.2°
Maximum altitude 18:49:00 67° 111° (ESE) 923 3.6 -21.2°
Enters shadow 18:53:31 17° 32° (NNE) 2,063 5.5 -22.0°
